Weather in Loo

Russia / Krasnodar Krai     43°42′17″N   39°35′02″E
temp.,
°C
wind,
m/s
gust,
m/s
humid.,
%
clouds,
%
prec.,
mm/h
press.,
hPa
HPBL,
m
18 april, sun
sun1800:00+11e2396100 0.6 102074
03:00+11ene1191100 0.6 101717
06:00+12wnw2390100 0.1 101623
09:00+13nw3491100 0.5 101592
12:00+16w337944 1.3 1015305
15:00+15s138055 1.6 1015193
18:00+14wnw2291100 0.4 101741
21:00+14ese2290100 0.6 101729
19 april, mon
mon1900:00+14e3395100 2.3 101853
03:00+13se3395100 2.6 101740
06:00+13sw2296100 0.4 101738
09:00+13e2396100 1.3 101747
12:00+15ene2389100 0.3 101585
15:00+17ese1185100 0.4 101358
18:00+16wnw118389 0.1 101311
21:00+15nnw3282100 0.1 101221
20 april, tue
tue2000:00+15ese487492 0.1 1008104
03:00+15ne2280100 0.1 100532
06:00+15nnw2276100 0.0 100223
09:00+15wnw8982100 0.1 1004187
12:00+14sw4489100 0.7 1007340
15:00+14w5686100 1.4 1010451
18:00+13nw1186100 0.5 101217
21:00+12sse2389100 0.9 101665
21 april, wed
wed2100:00+11s2388100 0.4 101883
03:00+11s228993 0.6 101873
06:00+10w128996 0.1 102069
09:00+11wnw218476 0.1 1021300
12:00+12wnw4377100 0.0 1020320
15:00+14wnw5666100 0.0 1019383
18:00+12nw6877100 0.0 1019212
21:00+11nw56826 0.0 1020116
22 april, thu
thu2200:00+10nne117812 0.0 102121
03:00+10ese338594 0.0 102163
06:00+9e338919 0.0 1022162
09:00+12s228123 0.0 1022340
12:00+13ssw21778 0.0 1023452
15:00+12w237778 0.0 1023422
18:00+13wnw347822 0.0 1022192
21:00+10nnw33840 0.0 102369